This is the latest recevied weather packets stored in our database for station/object DM4XI-13. If no packets are shown the sender has not sent any weather packets the latest 10 day(s).
| Time | Temp. | Humidity | Pressure | Rain* | Wind** | Luminosity | Snow |
|---|---|---|---|---|---|---|---|
| 1778304571 | 8.89° C | 88% | 1016.5 hPa | 0 mm | 0.45 m/s, 64° | 84 W/m² | - |
| 1778304511 | 8.89° C | 89% | 1016.3 hPa | 0 mm | 0.45 m/s, 46° | 78 W/m² | - |
| 1778304450 | 8.89° C | 88% | 1016.3 hPa | 0 mm | 0 m/s | 74 W/m² | - |
| 1778304389 | 8.89° C | 89% | 1016.4 hPa | 0 mm | 0 m/s | 73 W/m² | - |
| 1778304328 | 8.89° C | 89% | 1016.4 hPa | 0 mm | 0 m/s | 75 W/m² | - |
| 1778304267 | 8.89° C | 89% | 1016.3 hPa | 0 mm | 0 m/s | 73 W/m² | - |
| 1778304206 | 8.89° C | 89% | 1016.2 hPa | 0 mm | 0 m/s | 74 W/m² | - |
| 1778304145 | 8.89° C | 88% | 1016.2 hPa | 0 mm | 0 m/s | 74 W/m² | - |
| 1778304084 | 8.89° C | 88% | 1016.2 hPa | 0 mm | 0 m/s | 73 W/m² | - |
| 1778304023 | 8.89° C | 87% | 1016.4 hPa | 0 mm | 0.45 m/s, 87° | 72 W/m² | - |
| 1778303962 | 8.89° C | 87% | 1016.2 hPa | 0 mm | 0 m/s | 72 W/m² | - |
| 1778303901 | 8.89° C | 87% | 1016.3 hPa | 0 mm | 0.45 m/s, 27° | 71 W/m² | - |
| 1778303840 | 8.89° C | 87% | 1016.2 hPa | 0 mm | 0.45 m/s, 7° | 71 W/m² | - |
| 1778303779 | 8.89° C | 86% | 1016.2 hPa | 0 mm | 0 m/s | 72 W/m² | - |
| 1778303718 | 8.89° C | 86% | 1016.3 hPa | 0 mm | 0.89 m/s, 47° | 77 W/m² | - |
| 1778303657 | 8.89° C | 87% | 1016.1 hPa | 0 mm | 0.45 m/s, 91° | 80 W/m² | - |
| 1778303595 | 8.89° C | 88% | 1016.2 hPa | 0 mm | 0 m/s | 73 W/m² | - |
| 1778303535 | 8.89° C | 88% | 1016.1 hPa | 0 mm | 0 m/s | 74 W/m² | - |
| 1778303474 | 8.89° C | 88% | 1016.3 hPa | 0 mm | 0 m/s | 76 W/m² | - |
| 1778303413 | 8.89° C | 88% | 1016.3 hPa | 0 mm | 0 m/s | 78 W/m² | - |
| 1778303351 | 8.89° C | 88% | 1016.3 hPa | 0 mm | 0.45 m/s, 95° | 77 W/m² | - |
| 1778303291 | 8.33° C | 89% | 1016.3 hPa | 0 mm | 0 m/s | 77 W/m² | - |
| 1778303229 | 8.33° C | 89% | 1016.2 hPa | 0 mm | 0 m/s | 78 W/m² | - |
| 1778303165 | 8.33° C | 89% | 1016.2 hPa | 0 mm | 0.45 m/s, 93° | 77 W/m² | - |
| 1778303104 | 8.33° C | 90% | 1016.3 hPa | 0 mm | 0 m/s | 73 W/m² | - |
* Rain latest hour (hover to see other rain measurements)
** Current wind speed in m/s (hover to see current wind gust speed)